OBJECT B

基本信息
目录编号:
67364
目录名称:
OBJECT B
国际标识:
2026-004B
轨道中心:
EARTH
物体状态:
在轨
发射日期:
2026-01-11 UTC
国别:
(TBD)
轨道信息
数据来源: 国际轨道数据
星历时间: 2026-09-04T18:48:58+0800
半长轴: 6982.535km
偏心率: 0.0007416
轨道倾角: 97.812°
近地点辐角: 221.594°
升交点赤经: 244.806°
平近点角: 138.471°
近地点: 599.219km
远地点: 609.577km
周期: 96.779分钟
每日圈数: 14.879322
详细信息
发射场:
AFWTR
轨道高度:
LEO
数据来源:
AOE Integration Group
参考系:
TEME
时间系统:
UTC
历元类型:
SGP4
2D轨道图
3D轨道图
轨道高度分析图
轨道倾角分析图
轨道综合分析图
查看轨道综合分析图